TimeEST,TemperatureF,Dew PointF,Humidity,Sea Level PressureIn,VisibilityMPH,Wind Direction,Wind SpeedMPH,Gust SpeedMPH,PrecipitationIn,Events,Conditions,WindDirDegrees,DateUTC
12:15 AM,42.8,42.8,100,30.33,7.0,Calm,Calm,-,N/A,,Clear,0,2013-11-04 05:15:00
12:35 AM,41.0,41.0,100,30.33,5.0,Calm,Calm,-,N/A,,Clear,0,2013-11-04 05:35:00
12:55 AM,42.8,42.8,100,30.34,3.0,Calm,Calm,-,N/A,,Clear,0,2013-11-04 05:55:00
1:15 AM,41.0,41.0,100,30.34,5.0,Calm,Calm,-,N/A,,Clear,0,2013-11-04 06:15:00
1:35 AM,41.0,41.0,100,30.34,10.0,Calm,Calm,-,N/A,,Clear,0,2013-11-04 06:35:00
1:55 AM,41.0,41.0,100,30.34,4.0,Calm,Calm,-,N/A,,Clear,0,2013-11-04 06:55:00
2:15 AM,39.2,39.2,100,30.34,2.0,NE,3.5,-,N/A,,Clear,50,2013-11-04 07:15:00
2:35 AM,41.0,41.0,100,30.35,10.0,Calm,Calm,-,N/A,,Clear,0,2013-11-04 07:35:00
2:55 AM,41.0,41.0,100,30.34,10.0,NE,3.5,-,N/A,,Clear,50,2013-11-04 07:55:00
3:15 AM,41.0,39.2,93,30.34,10.0,ENE,3.5,-,N/A,,Clear,60,2013-11-04 08:15:00
3:35 AM,42.8,41.0,93,30.35,10.0,NE,3.5,-,N/A,,Clear,50,2013-11-04 08:35:00
3:55 AM,39.2,37.4,93,30.35,10.0,Calm,Calm,-,N/A,,Clear,0,2013-11-04 08:55:00
4:15 AM,41.0,39.2,93,30.35,10.0,NE,3.5,-,N/A,,Clear,50,2013-11-04 09:15:00
4:35 AM,41.0,39.2,93,30.35,10.0,NE,3.5,-,N/A,,Clear,50,2013-11-04 09:35:00
4:55 AM,41.0,41.0,100,30.35,10.0,ENE,3.5,-,N/A,,Clear,60,2013-11-04 09:55:00
5:15 AM,42.8,41.0,93,30.36,10.0,NE,5.8,-,N/A,,Clear,50,2013-11-04 10:15:00
5:35 AM,42.8,41.0,93,30.37,10.0,NE,4.6,-,N/A,,Clear,40,2013-11-04 10:35:00
5:55 AM,42.8,41.0,93,30.38,10.0,NNE,3.5,-,N/A,,Clear,30,2013-11-04 10:55:00
6:15 AM,42.8,41.0,93,30.37,10.0,ENE,4.6,-,N/A,,Clear,60,2013-11-04 11:15:00
6:35 AM,42.8,41.0,93,30.36,10.0,ENE,5.8,-,N/A,,Clear,60,2013-11-04 11:35:00
6:55 AM,42.8,41.0,93,30.37,10.0,ENE,6.9,-,N/A,,Clear,60,2013-11-04 11:55:00
7:15 AM,42.8,41.0,93,30.37,10.0,ENE,5.8,-,N/A,,Clear,60,2013-11-04 12:15:00
7:35 AM,44.6,42.8,93,30.39,10.0,NE,4.6,-,N/A,,Clear,50,2013-11-04 12:35:00
7:55 AM,46.4,42.8,87,30.41,10.0,NE,4.6,-,N/A,,Clear,50,2013-11-04 12:55:00
8:15 AM,50.0,44.6,82,30.42,10.0,ENE,5.8,-,N/A,,Clear,60,2013-11-04 13:15:00
8:35 AM,50.0,44.6,82,30.42,10.0,ENE,8.1,-,N/A,,Clear,70,2013-11-04 13:35:00
8:55 AM,53.6,44.6,72,30.42,10.0,ENE,8.1,-,N/A,,Clear,60,2013-11-04 13:55:00
9:15 AM,55.4,44.6,67,30.42,10.0,East,10.4,16.1,N/A,,Clear,80,2013-11-04 14:15:00
9:35 AM,57.2,44.6,63,30.42,10.0,East,8.1,-,N/A,,Clear,90,2013-11-04 14:35:00
9:55 AM,59.0,42.8,55,30.42,10.0,ENE,10.4,16.1,N/A,,Clear,70,2013-11-04 14:55:00
10:15 AM,60.8,41.0,48,30.43,10.0,ENE,12.7,17.3,N/A,,Clear,60,2013-11-04 15:15:00
10:35 AM,62.6,37.4,39,30.44,10.0,East,10.4,16.1,N/A,,Clear,90,2013-11-04 15:35:00
10:55 AM,62.6,37.4,39,30.44,10.0,ENE,11.5,-,N/A,,Clear,60,2013-11-04 15:55:00
11:15 AM,64.4,37.4,37,30.43,10.0,ENE,12.7,-,N/A,,Clear,60,2013-11-04 16:15:00
11:35 AM,64.4,39.2,40,30.43,10.0,East,12.7,18.4,N/A,,Clear,90,2013-11-04 16:35:00
11:55 AM,66.2,41.0,40,30.43,10.0,East,12.7,17.3,N/A,,Clear,90,2013-11-04 16:55:00
12:15 PM,66.2,41.0,40,30.41,10.0,ENE,10.4,-,N/A,,Clear,70,2013-11-04 17:15:00
12:35 PM,68.0,42.8,40,30.40,10.0,East,9.2,16.1,N/A,,Clear,90,2013-11-04 17:35:00
12:55 PM,68.0,44.6,43,30.39,10.0,East,15.0,18.4,N/A,,Clear,100,2013-11-04 17:55:00
1:15 PM,68.0,44.6,43,30.38,10.0,East,11.5,16.1,N/A,,Clear,90,2013-11-04 18:15:00
1:35 PM,68.0,44.6,43,30.37,10.0,ENE,9.2,16.1,N/A,,Clear,70,2013-11-04 18:35:00
1:55 PM,68.0,44.6,43,30.38,10.0,ENE,10.4,18.4,N/A,,Clear,70,2013-11-04 18:55:00
2:15 PM,68.0,42.8,40,30.38,10.0,NE,9.2,-,N/A,,Clear,50,2013-11-04 19:15:00
2:35 PM,68.0,42.8,40,30.38,10.0,East,8.1,16.1,N/A,,Clear,90,2013-11-04 19:35:00
2:55 PM,68.0,42.8,40,30.38,10.0,East,9.2,-,N/A,,Clear,80,2013-11-04 19:55:00
3:15 PM,68.0,41.0,37,30.38,10.0,ENE,8.1,-,N/A,,Clear,70,2013-11-04 20:15:00
3:35 PM,68.0,41.0,37,30.38,10.0,NE,11.5,16.1,N/A,,Clear,40,2013-11-04 20:35:00
3:55 PM,68.0,39.2,35,30.38,10.0,NE,9.2,16.1,N/A,,Clear,50,2013-11-04 20:55:00
4:15 PM,68.0,37.4,33,30.37,10.0,NE,10.4,-,N/A,,Clear,50,2013-11-04 21:15:00
4:35 PM,66.2,37.4,35,30.37,10.0,ENE,9.2,-,N/A,,Clear,60,2013-11-04 21:35:00
4:55 PM,64.4,35.6,34,30.38,10.0,ENE,8.1,-,N/A,,Clear,70,2013-11-04 21:55:00
5:15 PM,62.6,35.6,37,30.38,10.0,ENE,6.9,-,N/A,,Clear,60,2013-11-04 22:15:00
5:35 PM,60.8,35.6,39,30.38,10.0,ENE,6.9,-,N/A,,Clear,70,2013-11-04 22:35:00
5:55 PM,55.4,37.4,51,30.38,10.0,ENE,4.6,-,N/A,,Clear,60,2013-11-04 22:55:00
6:15 PM,53.6,39.2,58,30.39,10.0,NE,3.5,-,N/A,,Clear,50,2013-11-04 23:15:00
6:35 PM,53.6,37.4,54,30.40,10.0,ENE,4.6,-,N/A,,Clear,70,2013-11-04 23:35:00
6:55 PM,51.8,42.8,71,30.40,10.0,Calm,Calm,-,N/A,,Clear,0,2013-11-04 23:55:00
7:15 PM,46.4,42.8,87,30.41,10.0,ENE,3.5,-,N/A,,Clear,60,2013-11-05 00:15:00
7:35 PM,50.0,41.0,71,30.41,10.0,NE,4.6,-,N/A,,Clear,50,2013-11-05 00:35:00
7:55 PM,50.0,37.4,62,30.42,10.0,NE,4.6,-,N/A,,Clear,50,2013-11-05 00:55:00
8:15 PM,50.0,37.4,62,30.42,10.0,ENE,4.6,-,N/A,,Clear,60,2013-11-05 01:15:00
8:35 PM,51.8,37.4,58,30.42,10.0,ENE,5.8,-,N/A,,Clear,60,2013-11-05 01:35:00
8:55 PM,51.8,37.4,58,30.43,10.0,ENE,4.6,-,N/A,,Clear,60,2013-11-05 01:55:00
9:15 PM,50.0,37.4,62,30.43,10.0,ENE,4.6,-,N/A,,Clear,70,2013-11-05 02:15:00
9:35 PM,46.4,37.4,71,30.44,10.0,East,3.5,-,N/A,,Clear,80,2013-11-05 02:35:00
9:55 PM,46.4,37.4,71,30.44,10.0,Calm,Calm,-,N/A,,Clear,0,2013-11-05 02:55:00
10:15 PM,44.6,39.2,81,30.44,10.0,Calm,Calm,-,N/A,,Clear,0,2013-11-05 03:15:00
10:35 PM,44.6,39.2,81,30.44,10.0,Calm,Calm,-,N/A,,Clear,0,2013-11-05 03:35:00
10:55 PM,44.6,37.4,76,30.44,10.0,ENE,4.6,-,N/A,,Clear,60,2013-11-05 03:55:00
11:15 PM,46.4,37.4,71,30.44,10.0,ENE,3.5,-,N/A,,Clear,60,2013-11-05 04:15:00
11:35 PM,46.4,37.4,71,30.44,10.0,NE,4.6,-,N/A,,Scattered Clouds,50,2013-11-05 04:35:00
11:55 PM,46.4,37.4,71,30.43,10.0,ENE,5.8,-,N/A,,Scattered Clouds,70,2013-11-05 04:55:00